Wind_Speed
97 97 101 101 93 95 80 75 55 52 57 64 70 77 79 82 85 69 61 54 46 36 23 22 19 17 16 14 8 6 9 14 16 16 15 15 15 17 21 27 29 32 35 37 43 48 52 59 66 80 89 95 99 99
99 100 101 94 95 89 83 59 52 49 56 63 70 76 78 81 83 67 58 51 42 36 27 20 17 15 16 12 9 9 11 17 20 21 21 20 19 19 18 21 18 18 23 25 34 40 43 49 54 63 76 84 90 93
103 104 101 97 83 75 76 49 48 49 57 64 68 71 77 81 77 63 56 48 40 33 29 26 24 16 15 18 15 13 12 11 16 20 25 27 24 23 20 16 15 16 16 17 21 28 34 41 45 54 66 70 78 83
104 104 95 89 77 75 62 53 46 46 57 63 67 70 75 79 70 62 53 47 39 33 30 30 32 32 33 36 28 17 16 12 11 15 19 23 28 27 22 19 18 20 18 21 25 25 28 34 39 46 55 62 67 76
109 94 88 85 78 72 56 49 38 46 55 62 68 69 75 76 65 62 53 47 34 28 36 33 34 36 44 39 35 32 18 11 15 17 19 20 22 27 30 26 22 22 23 23 25 26 29 29 33 39 47 53 62 67
94 83 80 82 77 64 46 37 34 46 56 63 66 67 74 70 59 56 47 41 37 34 20 32 37 42 46 40 32 36 40 28 29 20 14 18 19 28 28 28 27 26 26 27 25 23 24 29 32 36 41 46 54 62
85 79 75 80 71 48 33 32 36 47 56 62 62 69 71 66 55 51 42 37 35 37 32 38 49 50 54 52 43 46 41 47 41 39 34 19 19 24 29 29 29 28 30 27 27 23 23 25 28 32 32 37 47 55
75 73 79 64 36 27 26 30 39 50 58 56 62 67 67 59 54 45 38 36 32 36 38 49 52 57 56 56 54 58 53 50 46 40 43 38 16 16 20 30 28 29 30 30 27 26 25 24 27 26 28 29 36 48
76 78 58 30 24 25 27 32 42 49 50 56 63 64 63 53 53 41 35 31 33 34 41 47 50 55 59 49 48 55 57 52 57 50 45 42 25 13 17 19 26 32 32 32 31 28 26 24 22 24 27 30 32 39
71 59 35 23 25 29 30 37 46 50 52 59 64 64 62 52 46 37 32 29 36 38 46 52 51 58 54 51 51 49 38 46 50 53 50 41 33 25 21 23 28 29 32 33 33 31 28 27 25 27 26 30 31 36
55 37 28 26 27 28 32 42 48 50 53 60 61 63 56 51 40 32 29 34 36 38 45 51 54 63 57 51 49 45 47 48 47 46 42 39 36 32 15 16 19 27 27 30 33 33 29 30 27 27 26 27 31 34
39 28 23 24 28 32 41 47 45 49 55 59 61 59 51 48 34 29 32 33 35 46 50 52 58 63 65 55 50 46 44 41 39 41 42 41 36 32 27 24 21 26 28 24 27 34 32 28 28 26 26 27 29 33
26 24 27 26 31 37 40 40 48 50 56 59 61 48 49 38 33 35 39 40 48 52 55 57 63 71 60 50 46 42 39 36 35 36 41 41 34 30 28 25 22 22 27 22 22 25 33 29 29 29 27 30 29 29
21 24 22 26 38 41 37 43 47 54 57 60 50 45 38 32 28 33 42 53 54 57 55 57 59 55 54 47 39 35 33 32 32 32 32 33 32 32 31 30 27 22 22 21 20 22 24 30 29 28 31 30 31 30
22 25 24 30 31 34 40 46 47 53 56 57 44 36 24 24 31 32 45 64 56 49 50 53 54 51 47 44 40 36 33 32 31 32 31 30 30 31 31 29 27 25 21 20 19 21 22 24 28 27 29 31 31 31
19 21 25 30 33 35 40 46 49 53 57 56 44 31 25 15 29 41 58 68 55 51 54 56 54 49 46 42 39 36 35 33 30 29 29 28 28 28 28 28 25 24 19 15 15 21 21 18 28 29 29 32 32 32
22 26 32 31 31 40 43 49 50 52 56 44 32 27 22 28 43 49 61 64 48 51 55 58 55 51 46 41 38 36 33 30 30 30 30 27 27 27 28 31 28 25 22 17 15 20 20 17 26 30 29 31 34 33
21 23 23 29 35 41 44 47 50 51 44 33 20 18 12 9 32 55 59 58 50 52 55 59 59 52 46 41 38 35 34 32 30 30 30 28 26 26 27 28 26 26 26 20 16 16 18 18 20 28 28 30 33 34
19 23 27 31 38 41 42 44 49 48 36 27 20 23 21 33 49 50 56 60 52 49 53 56 57 53 47 43 39 36 33 31 30 29 29 28 26 26 26 24 23 21 18 16 14 15 15 13 20 24 28 28 31 33
23 25 28 36 37 42 42 46 44 36 20 18 15 21 17 30 44 48 58 59 48 47 51 55 56 53 48 45 43 39 35 33 33 32 33 33 33 32 29 30 28 23 20 17 13 9 10 13 18 21 24 26 28 31
27 24 32 34 34 37 42 40 34 24 12 18 20 31 37 47 50 48 49 53 51 49 49 52 52 53 49 43 40 41 41 38 35 35 34 32 30 29 28 26 28 27 19 16 14 13 11 9 13 19 20 25 28 28
23 23 27 34 34 38 36 28 26 13 12 16 23 30 41 46 36 42 46 51 54 51 48 50 53 55 51 49 48 44 41 41 39 37 35 34 33 32 30 28 26 24 24 22 16 10 10 11 9 14 18 20 26 24
24 29 33 30 34 36 24 24 18 6 3 4 18 31 33 36 39 41 42 48 51 47 45 49 53 57 59 56 52 50 48 45 44 41 38 36 34 31 30 29 26 21 19 18 17 14 11 10 9 9 14 17 16 20
30 27 26 30 33 22 21 11 5 9 4 10 27 26 35 38 41 45 45 45 50 48 45 45 49 50 52 54 51 49 46 44 44 43 40 38 36 34 32 30 29 27 23 21 20 16 10 9 8 7 9 11 13 17
20 21 26 30 22 20 11 3 6 3 3 13 31 37 41 41 40 42 47 48 50 52 48 47 44 48 50 52 52 49 47 45 42 41 40 38 37 34 32 30 28 27 24 21 18 17 14 9 7 9 6 7 10 13
18 24 24 25 17 16 2 2 5 14 8 10 24 31 39 39 44 43 48 54 53 56 54 53 52 50 53 55 56 55 51 48 47 45 43 42 40 38 36 34 32 29 27 24 21 19 15 10 9 7 4 4 6 7
19 22 25 16 16 14 11 7 10 14 13 17 24 33 36 41 46 49 49 52 57 57 57 57 56 55 52 53 56 58 58 54 50 47 46 44 42 39 37 35 33 32 29 26 22 19 17 15 14 11 8 4 2 4
21 25 17 14 15 7 8 4 13 18 21 20 23 30 37 42 46 49 54 55 57 59 62 59 58 57 55 51 50 54 56 58 55 52 50 48 45 43 41 39 36 32 30 28 25 23 20 17 15 13 11 9 6 3
22 20 15 16 10 7 9 3 10 14 13 14 19 28 36 40 44 49 53 58 60 61 62 65 63 58 57 58 52 47 50 50 53 52 50 49 48 46 44 41 38 36 34 32 30 27 24 21 18 15 13 11 9 6
21 14 15 13 11 8 8 4 8 14 16 17 18 26 30 35 39 46 50 54 59 60 59 59 61 59 57 57 56 53 48 49 50 50 51 49 47 46 45 44 43 40 38 34 31 29 26 24 21 18 15 13 10 8
12 13 14 12 8 7 5 0 7 11 17 17 19 27 30 32 32 40 45 51 57 62 63 60 58 61 59 55 57 58 55 50 49 50 49 50 50 48 46 46 45 43 42 37 35 33 30 28 25 23 21 18 14 11
11 13 11 7 11 11 13 8 8 11 19 18 15 21 28 30 30 41 43 47 54 64 64 65 63 59 57 58 56 57 58 55 50 47 48 48 48 48 46 43 42 42 42 42 40 36 33 30 28 26 24 23 21 19
7 4 2 6 8 9 9 8 9 14 18 19 22 25 27 36 45 40 33 41 46 58 63 62 62 59 56 55 55 56 54 55 54 51 47 46 46 45 46 46 43 42 40 39 38 37 35 33 31 29 28 26 24 23
Wind_Direction
329 332 332 333 334 337 335 335 337 341 335 335 336 338 344 349 353 353 356 357 358 359 343 341 347 348 348 333 322 295 264 263 258 259 267 278 295 303 291 277 271 262 256 249 247 244 242 234 231 231 231 231 229 224
330 330 331 333 331 335 332 336 334 338 334 333 337 339 342 349 351 353 355 357 2 3 360 351 349 4 5 350 346 323 292 281 278 278 278 283 288 294 294 284 272 268 263 253 245 243 243 238 232 232 233 231 229 224
328 329 332 328 333 332 335 335 336 335 333 334 342 344 344 348 351 353 354 356 3 8 10 13 12 360 358 352 358 359 335 327 310 293 276 273 279 289 305 296 287 277 283 274 263 249 246 242 235 228 231 231 229 225
326 328 327 329 329 327 330 329 335 333 332 336 344 344 343 347 349 352 354 356 4 25 24 32 36 37 34 25 12 353 341 333 324 311 302 294 286 283 287 296 298 294 294 288 281 265 252 241 237 231 229 230 228 225
323 325 323 328 327 328 323 325 336 334 338 342 342 342 344 346 347 350 352 357 4 16 26 26 21 23 15 13 8 13 7 339 352 348 343 317 306 297 287 286 288 294 282 272 279 276 267 254 239 234 232 228 228 226
321 323 325 322 324 326 320 324 338 334 340 341 338 342 346 346 345 347 349 358 8 7 357 4 9 4 10 12 13 6 3 359 1 342 329 309 314 297 287 280 278 280 288 282 269 271 267 267 256 243 231 227 225 224
321 321 320 318 319 316 318 329 334 333 337 337 338 345 344 344 343 346 348 352 0 5 358 359 7 4 4 355 352 352 350 350 350 345 340 324 301 293 293 287 279 274 273 277 273 273 259 265 263 256 248 235 225 223
316 322 320 318 319 316 325 328 330 330 329 335 337 343 343 341 342 343 345 354 6 6 355 7 7 2 355 347 345 341 338 340 341 339 330 337 298 280 279 283 286 285 275 267 271 262 267 264 259 260 248 240 231 223
319 320 323 324 314 326 328 327 323 332 337 337 339 340 342 338 341 341 342 344 2 3 354 352 353 351 345 344 338 334 326 328 324 327 323 330 323 276 280 288 287 278 282 276 269 266 256 264 265 259 251 242 231 223
320 314 316 309 313 324 330 329 332 335 334 336 339 338 340 338 340 334 336 338 347 344 347 346 341 341 341 335 334 330 318 311 318 316 315 318 323 321 315 297 277 271 276 278 269 263 260 252 253 248 251 239 231 223
313 311 304 303 321 322 324 324 325 329 331 335 337 339 337 340 335 335 334 341 338 333 328 331 337 334 336 334 332 327 321 315 319 315 312 317 319 317 291 288 281 281 274 271 267 262 256 251 247 247 243 234 231 226
305 294 293 300 310 317 322 322 326 329 335 336 337 339 337 337 332 328 325 338 328 330 327 329 323 322 328 331 330 325 316 313 307 311 315 316 319 318 319 314 308 290 289 285 267 268 266 256 249 245 238 237 235 231
290 284 290 308 315 317 323 326 329 331 336 336 339 337 337 336 331 336 336 343 332 332 327 323 317 317 323 328 328 324 317 317 317 317 312 316 319 320 319 316 312 300 297 296 276 263 264 262 253 245 237 234 231 231
278 286 301 308 313 322 324 329 329 329 331 335 341 338 342 346 340 353 343 332 326 328 325 317 317 326 331 332 331 326 327 325 322 318 315 313 318 318 319 319 314 302 283 286 281 275 260 257 252 243 239 229 234 228
278 293 303 311 318 317 326 322 324 329 334 340 336 339 348 8 9 346 333 344 342 334 334 337 338 338 336 337 338 339 338 334 332 331 326 323 320 318 319 317 314 311 305 298 287 277 268 259 253 244 239 237 228 227
284 297 303 309 313 320 319 328 332 332 334 336 334 333 336 332 335 336 341 342 344 342 340 343 343 347 346 344 343 344 341 336 336 334 330 324 323 323 322 321 319 311 309 296 279 270 265 249 250 243 233 235 235 226
295 296 301 309 312 317 316 328 329 327 333 335 339 346 357 1 323 333 339 338 342 343 346 347 352 352 350 348 349 348 346 344 342 339 332 330 333 331 329 326 329 321 310 300 287 265 262 249 238 248 239 234 233 234
292 299 303 315 311 315 322 324 324 332 335 334 346 354 359 287 326 335 333 340 346 347 346 351 355 354 354 353 355 356 353 349 344 342 338 336 335 327 320 315 313 313 316 317 292 274 263 252 243 245 247 238 236 232
277 282 296 302 306 315 322 324 330 334 331 338 348 359 342 325 339 342 348 351 346 344 350 353 355 356 357 357 356 356 355 350 353 352 347 346 347 343 336 330 328 331 320 312 302 284 272 253 245 239 240 239 237 234
281 296 306 310 317 318 321 323 333 332 337 25 10 15 358 331 338 346 350 348 346 347 354 354 355 358 359 358 357 356 355 356 355 351 350 353 351 346 344 341 338 339 331 328 312 295 266 255 248 245 238 240 237 235
287 299 299 310 320 321 326 334 333 340 334 342 338 351 350 346 339 348 349 350 355 358 356 354 358 360 360 2 1 359 358 357 356 352 352 352 350 349 347 342 340 341 336 331 336 318 308 274 245 245 235 230 235 231
291 299 314 315 314 326 332 332 331 335 360 339 351 342 344 340 348 349 348 351 358 359 355 357 358 1 5 5 3 5 6 1 358 357 353 349 352 350 348 351 340 344 343 342 347 344 304 290 265 247 249 239 235 232
294 302 312 310 324 326 331 330 327 296 129 300 326 335 347 4 359 355 355 359 2 357 358 3 2 2 5 8 8 3 2 3 2 359 356 356 354 352 354 356 353 357 355 350 348 343 326 302 290 261 245 246 242 235
293 304 310 318 322 326 334 324 318 331 351 350 9 6 6 6 4 6 4 1 5 4 3 4 4 5 8 8 9 10 6 4 4 360 0 358 356 357 356 358 357 359 358 357 354 355 349 323 300 270 251 251 241 230
294 303 315 322 326 331 341 32 84 140 68 19 18 13 10 8 6 6 8 8 11 10 8 5 4 4 8 11 11 13 11 9 10 7 6 4 3 3 3 2 4 3 5 5 4 1 354 355 333 310 284 252 254 250
300 311 316 325 319 330 300 122 312 300 316 2 3 2 1 5 9 9 12 13 12 14 13 9 9 4 4 8 10 13 14 14 14 13 13 11 9 6 5 6 9 7 6 8 9 10 13 11 2 355 336 286 264 246
303 307 316 309 317 306 280 340 5 9 7 12 12 16 7 11 12 10 11 13 14 13 12 14 13 11 8 5 8 8 11 11 13 16 16 14 13 14 13 11 11 14 15 12 13 14 17 17 14 10 11 3 301 258
305 313 307 314 323 287 234 24 44 29 21 18 24 23 19 19 15 13 11 10 11 11 11 11 14 12 12 10 9 11 10 10 10 12 14 16 16 14 14 17 18 16 16 20 22 20 21 24 29 28 20 11 5 344
312 310 305 317 306 253 205 53 33 22 17 34 35 27 21 19 13 11 12 10 6 6 8 9 7 10 11 12 11 9 10 11 11 12 13 14 15 16 17 17 19 21 22 22 23 24 24 25 27 28 29 28 22 12
312 295 307 298 284 276 257 294 8 359 6 12 7 357 1 1 3 5 8 10 8 6 5 6 5 5 9 10 9 10 8 8 11 11 13 14 15 15 16 18 20 21 23 23 24 25 27 28 28 28 30 32 30 26
286 292 286 270 266 252 239 313 347 343 333 324 328 344 344 347 352 355 356 2 4 4 2 1 4 5 4 6 9 9 10 9 7 9 10 11 13 15 17 18 17 19 21 22 24 25 25 26 28 29 29 28 28 29
289 285 265 247 245 243 277 279 295 333 347 343 339 332 321 333 329 325 335 343 353 356 357 356 355 358 0 3 4 5 6 9 8 5 7 10 11 12 13 15 16 18 20 21 23 23 23 24 25 26 26 26 25 24
283 232 219 242 248 238 247 250 285 301 306 306 308 300 306 312 317 316 319 339 340 344 348 348 348 349 353 357 359 1 3 5 6 5 4 4 7 10 11 13 14 16 17 19 21 22 23 22 21 21 21 20 20 20
Height
10773 10763 10750 10736 10723 10711 10700 10689 10680 10670 10661 10651 10639 10627 10614 10600 10585 10568 10555 10544 10533 10524 10519 10514 10509 10506 10502 10499 10498 10498 10499 10498 10498 10496 10495 10493 10491 10489 10488 10485 10483 10481 10479 10481 10481 10481 10483 10485 10493 10500 10507 10521 10535 10561
10764 10753 10741 10728 10714 10701 10692 10681 10673 10666 10657 10646 10633 10622 10607 10595 10583 10567 10554 10543 10533 10524 10518 10514 10509 10505 10501 10498 10495 10494 10493 10493 10494 10492 10489 10487 10485 10482 10479 10474 10472 10470 10468 10468 10466 10466 10467 10470 10472 10480 10486 10497 10511 10535
10756 10742 10732 10718 10704 10694 10685 10676 10669 10662 10653 10642 10630 10617 10602 10590 10580 10567 10554 10543 10534 10526 10518 10514 10511 10509 10505 10499 10494 10490 10488 10486 10485 10485 10485 10483 10479 10475 10471 10467 10463 10461 10458 10456 10455 10454 10454 10455 10458 10463 10466 10478 10493 10509
10747 10735 10722 10709 10697 10686 10677 10670 10663 10657 10648 10638 10626 10613 10600 10586 10575 10565 10554 10544 10535 10527 10520 10513 10509 10506 10502 10499 10496 10493 10489 10483 10481 10479 10477 10476 10473 10470 10464 10459 10455 10453 10451 10449 10446 10445 10443 10443 10446 10450 10453 10462 10474 10489
10736 10723 10712 10699 10688 10678 10669 10663 10657 10652 10643 10632 10620 10608 10596 10582 10570 10560 10551 10544 10536 10528 10520 10514 10509 10504 10500 10495 10491 10486 10484 10482 10478 10476 10472 10467 10465 10462 10457 10453 10448 10445 10443 10441 10438 10436 10434 10433 10434 10437 10441 10449 10458 10471
10721 10713 10702 10691 10680 10670 10664 10657 10652 10647 10637 10627 10615 10604 10591 10579 10568 10558 10549 10541 10534 10528 10521 10516 10510 10502 10494 10491 10487 10483 10479 10476 10474 10471 10468 10462 10458 10449 10445 10441 10441 10438 10433 10429 10427 10426 10425 10424 10424 10424 10428 10435 10442 10452
10712 10702 10690 10680 10668 10661 10658 10653 10648 10642 10631 10621 10611 10599 10588 10575 10564 10556 10547 10539 10532 10526 10520 10513 10506 10503 10495 10488 10479 10474 10470 10464 10459 10456 10455 10453 10451 10444 10437 10433 10428 10427 10425 10421 10417 10415 10416 10416 10415 10415 10418 10423 10428 10435
10701 10692 10681 10669 10660 10656 10652 10647 10644 10635 10626 10617 10606 10595 10583 10572 10562 10552 10544 10537 10529 10522 10516 10509 10503 10496 10490 10483 10474 10466 10460 10454 10450 10447 10446 10442 10440 10435 10427 10422 10419 10417 10415 10410 10409 10407 10406 10405 10405 10406 10407 10411 10416 10421
10686 10677 10666 10660 10657 10652 10647 10643 10637 10629 10620 10611 10601 10590 10577 10566 10557 10549 10541 10533 10526 10518 10512 10505 10501 10498 10492 10484 10473 10466 10456 10448 10441 10438 10433 10429 10426 10422 10417 10413 10409 10405 10403 10400 10398 10397 10398 10397 10395 10396 10398 10400 10404 10409
10679 10668 10662 10656 10652 10649 10643 10638 10631 10622 10613 10605 10596 10584 10572 10563 10553 10545 10537 10529 10521 10516 10509 10503 10496 10492 10488 10480 10472 10463 10456 10448 10440 10431 10424 10419 10413 10409 10408 10405 10399 10396 10392 10390 10387 10385 10387 10388 10388 10388 10389 10392 10395 10398
10665 10659 10656 10653 10649 10644 10638 10632 10625 10617 10608 10600 10591 10578 10566 10557 10548 10540 10532 10524 10518 10513 10508 10503 10494 10484 10478 10469 10461 10453 10446 10438 10430 10422 10413 10407 10402 10398 10395 10392 10389 10385 10384 10382 10379 10377 10378 10378 10381 10382 10383 10384 10386 10389
10657 10653 10651 10647 10642 10638 10633 10626 10619 10612 10603 10595 10584 10572 10561 10552 10543 10536 10528 10523 10519 10512 10504 10494 10484 10474 10468 10455 10447 10441 10434 10427 10419 10409 10401 10395 10391 10388 10385 10382 10380 10375 10374 10375 10372 10368 10367 10370 10372 10373 10375 10377 10378 10381
10648 10646 10644 10642 10638 10633 10628 10620 10613 10605 10598 10589 10579 10565 10555 10546 10539 10533 10528 10520 10514 10502 10495 10485 10473 10463 10454 10444 10435 10427 10419 10412 10405 10397 10390 10385 10382 10378 10374 10372 10370 10368 10365 10364 10364 10362 10359 10361 10362 10365 10368 10370 10370 10372
10640 10639 10638 10636 10632 10626 10621 10614 10606 10599 10591 10582 10571 10561 10552 10545 10539 10534 10528 10521 10510 10497 10486 10478 10467 10453 10438 10429 10423 10416 10407 10401 10395 10390 10385 10380 10375 10369 10365 10362 10360 10359 10357 10355 10354 10353 10353 10351 10353 10358 10358 10362 10364 10366
10634 10634 10632 10629 10625 10620 10615 10608 10600 10592 10583 10573 10564 10556 10550 10543 10536 10533 10525 10513 10500 10490 10481 10472 10457 10445 10431 10420 10412 10405 10398 10393 10388 10383 10377 10373 10367 10363 10359 10356 10353 10350 10348 10346 10346 10344 10344 10345 10345 10348 10350 10353 10356 10359
10628 10627 10625 10621 10619 10614 10608 10601 10593 10584 10575 10568 10559 10552 10545 10539 10534 10527 10520 10507 10494 10483 10476 10466 10451 10435 10424 10414 10406 10398 10392 10387 10382 10377 10372 10367 10362 10358 10352 10348 10345 10342 10341 10341 10339 10335 10334 10337 10334 10337 10342 10342 10347 10352
10623 10620 10618 10615 10611 10607 10601 10594 10585 10576 10570 10562 10555 10546 10538 10530 10529 10526 10518 10506 10493 10483 10470 10459 10444 10430 10421 10411 10402 10395 10389 10383 10377 10372 10366 10361 10356 10350 10345 10339 10337 10334 10332 10332 10331 10328 10328 10328 10327 10327 10333 10336 10338 10342
10616 10614 10610 10608 10604 10600 10593 10587 10579 10570 10563 10556 10551 10548 10545 10541 10538 10530 10517 10500 10487 10477 10467 10452 10440 10428 10418 10409 10400 10393 10386 10379 10373 10367 10360 10355 10350 10346 10340 10335 10333 10329 10326 10324 10323 10321 10320 10321 10322 10320 10324 10328 10330 10334
10609 10605 10604 10602 10597 10592 10586 10579 10572 10565 10556 10550 10546 10541 10535 10531 10529 10519 10508 10493 10483 10475 10465 10453 10440 10427 10416 10407 10399 10392 10386 10377 10370 10365 10359 10352 10346 10340 10334 10330 10325 10324 10322 10318 10315 10312 10312 10315 10312 10312 10312 10317 10321 10326
10603 10601 10600 10596 10589 10584 10579 10573 10566 10559 10552 10546 10543 10543 10543 10537 10527 10517 10503 10495 10485 10473 10460 10450 10439 10427 10416 10405 10397 10390 10383 10376 10369 10363 10355 10347 10342 10336 10331 10323 10319 10319 10315 10310 10309 10307 10306 10306 10304 10304 10306 10308 10312 10317
10597 10596 10593 10589 10583 10579 10574 10566 10560 10555 10550 10546 10543 10540 10536 10531 10523 10510 10503 10495 10482 10470 10459 10450 10440 10429 10417 10408 10399 10388 10378 10371 10366 10359 10353 10348 10343 10336 10331 10325 10317 10312 10308 10306 10303 10300 10299 10300 10299 10297 10299 10300 10302 10308
10593 10591 10587 10581 10577 10574 10568 10561 10556 10551 10547 10541 10539 10539 10534 10527 10516 10508 10501 10492 10477 10465 10458 10448 10437 10428 10417 10405 10393 10386 10380 10371 10364 10358 10351 10344 10337 10332 10328 10322 10317 10311 10304 10299 10298 10296 10293 10291 10292 10292 10293 10294 10296 10301
10586 10583 10581 10576 10572 10568 10563 10557 10553 10550 10546 10544 10543 10539 10534 10525 10519 10511 10501 10491 10480 10470 10459 10448 10437 10426 10414 10405 10396 10385 10376 10369 10362 10356 10349 10342 10336 10330 10323 10317 10312 10309 10303 10299 10295 10291 10288 10286 10286 10287 10287 10288 10292 10297
10579 10577 10575 10571 10566 10561 10558 10552 10548 10548 10548 10550 10546 10541 10533 10525 10518 10510 10502 10493 10483 10471 10460 10452 10444 10436 10425 10413 10403 10394 10383 10374 10365 10355 10349 10343 10335 10329 10323 10318 10311 10306 10301 10296 10292 10290 10287 10284 10283 10283 10283 10285 10287 10289
10574 10572 10570 10566 10562 10559 10556 10552 10548 10546 10546 10543 10539 10535 10529 10524 10518 10511 10503 10492 10482 10473 10463 10454 10448 10440 10431 10419 10409 10399 10388 10378 10370 10361 10353 10345 10337 10331 10324 10317 10312 10305 10301 10297 10292 10288 10285 10283 10281 10279 10281 10283 10284 10286
10569 10566 10564 10562 10559 10557 10554 10552 10550 10547 10544 10542 10538 10534 10531 10525 10516 10508 10499 10488 10480 10472 10463 10454 10444 10434 10424 10416 10406 10397 10389 10381 10373 10364 10356 10347 10339 10331 10324 10317 10312 10306 10300 10295 10292 10288 10286 10283 10281 10279 10279 10279 10280 10283
10564 10561 10559 10557 10556 10553 10551 10549 10546 10545 10544 10543 10541 10535 10531 10524 10516 10508 10498 10491 10483 10474 10466 10458 10448 10439 10427 10417 10408 10396 10388 10381 10375 10367 10359 10350 10344 10337 10329 10322 10314 10308 10303 10298 10293 10290 10287 10284 10281 10279 10278 10279 10278 10279
10559 10556 10554 10554 10552 10550 10550 10548 10545 10542 10540 10539 10536 10534 10528 10523 10519 10511 10503 10494 10485 10477 10468 10460 10452 10443 10436 10427 10416 10407 10395 10387 10377 10369 10362 10355 10349 10341 10333 10325 10319 10313 10307 10301 10297 10292 10288 10285 10283 10281 10279 10278 10277 10278
10555 10551 10549 10548 10547 10548 10549 10545 10541 10539 10537 10534 10532 10529 10525 10520 10516 10513 10506 10497 10488 10478 10468 10458 10451 10447 10438 10429 10423 10416 10409 10399 10389 10379 10370 10361 10352 10346 10339 10332 10324 10317 10311 10305 10300 10296 10292 10289 10287 10285 10282 10281 10280 10279
10550 10548 10546 10544 10543 10545 10546 10542 10541 10540 10538 10534 10531 10527 10522 10518 10516 10510 10502 10498 10493 10484 10479 10471 10463 10453 10444 10435 10427 10419 10411 10403 10394 10386 10378 10370 10362 10353 10343 10335 10328 10322 10316 10311 10306 10301 10297 10294 10291 10288 10286 10284 10282 10281
10545 10544 10542 10540 10541 10543 10542 10541 10541 10539 10536 10531 10527 10523 10518 10516 10511 10508 10505 10499 10493 10488 10482 10477 10467 10457 10448 10440 10432 10422 10414 10405 10397 10390 10383 10375 10366 10357 10350 10343 10336 10328 10321 10316 10310 10306 10301 10298 10294 10291 10288 10286 10284 10282
10540 10538 10537 10539 10539 10540 10539 10539 10536 10533 10530 10526 10522 10520 10515 10513 10510 10506 10504 10497 10491 10484 10478 10473 10468 10461 10452 10443 10434 10426 10418 10410 10402 10395 10388 10380 10373 10366 10358 10351 10344 10336 10328 10320 10314 10310 10307 10303 10299 10295 10292 10289 10287 10284
10534 10535 10535 10536 10536 10537 10537 10537 10534 10530 10527 10525 10522 10519 10516 10512 10509 10504 10498 10494 10489 10485 10480 10474 10470 10463 10454 10447 10440 10432 10423 10415 10407 10399 10393 10386 10379 10372 10365 10357 10349 10342 10336 10330 10324 10319 10313 10308 10304 10300 10296 10293 10290 10287